Regional Weather Roundup
Issued by NWS Boston, MA

Home | Current Version | Previous Version | Text Only | Print | Product List | Glossary On
Versions: 1 2 3 4 5 6 7 8 9 10 11 12 13 14 15 16 17 18 19 20 21 22 23 24 25 26 27 28 29 30 31 32 33 34 35 36 37 38 39 40 41 42 43 44 45 46 47 48 49 50
000
ASUS41 KBOX 032310
RWRBOX

REGIONAL WEATHER ROUNDUP
NATIONAL WEATHER SERVICE TAUNTON MA
700 PM EDT WED JUN 03 2015

NOTE:  "FAIR" INDICATES FEW OR NO CLOUDS BELOW 12,000 FEET WITH NO
SIGNIFICANT WEATHER AND/OR OBSTRUCTIONS TO VISIBILITY.  THE FOLLOWING
OBSERVATION LOCATIONS DO NOT REPORT PRESENT WEATHER...PROVINCETOWN...
SMITHFIELD...BLOCK ISLAND...KEENE...AND OXFORD.

MAZALL-040000-
EASTERN MASSACHUSETTS

CITY           SKY/WX    TMP DP  RH WIND       PRES   REMARKS
BOSTON         MOSUNNY   52  44  74 E14       30.24R
BEVERLY        SUNNY     53  43  68 S8        30.23R
LAWRENCE       SUNNY     57  45  64 E8        30.23R
BEDFORD        SUNNY     58  44  60 SE10      30.21R
BLUE HILL        N/A     56  45  66 E8        30.21R
NORWOOD        SUNNY     59  46  62 SE5       30.21R
MARSHFIELD     SUNNY     54  45  71 E6        30.25S
PLYMOUTH       SUNNY     55  44  66 E7        30.24R
TAUNTON        MOSUNNY   58  44  60 E6        30.22R
NEW BEDFORD    MOSUNNY   58  44  60 NE9       30.22R
$$

MAZALL-040000-
CAPE COD AND THE ISLANDS

CITY           SKY/WX    TMP DP  RH WIND       PRES   REMARKS
FALMOUTH       SUNNY     54  43  66 E8        30.24R
HYANNIS        SUNNY     55  44  66 E7        30.22S
CHATHAM        SUNNY     52  42  69 E8        30.25S
PROVINCETOWN   SUNNY     54  41  62 E7        30.25S
NANTUCKET      MOSUNNY   53  42  66 MISG      30.24S
MARTHAS VNYRD  MOSUNNY   54  45  71 E10       30.23R
$$

MAZALL-040000-
CENTRAL AND WESTERN MASSACHUSETTS

CITY           SKY/WX    TMP DP  RH WIND       PRES   REMARKS
WORCESTER      SUNNY     61  47  59 E7        30.20R
FITCHBURG      SUNNY     64  48  56 SE8       30.20R
ORANGE         SUNNY     69  42  37 NW5       30.17R
SPRINGFIELD    SUNNY     71  45  39 S3        30.16R
WESTFIELD      MOSUNNY   70  44  39 CALM      30.17R
NORTH ADAMS    SUNNY     66  48  52 W6        30.17R
PITTSFIELD     MOSUNNY   65  48  54 NW7       30.17R
$$

RIZALL-040000-
RHODE ISLAND

CITY           SKY/WX    TMP DP  RH WIND       PRES   REMARKS
PROVIDENCE     PTSUNNY   59  48  67 S10       30.23R
NEWPORT        MOSUNNY   55  45  68 SE7       30.22R
BLOCK ISLAND   MOSUNNY   54  46  76 SE12      30.24R
SMITHFIELD       N/A    N/A N/A N/A MISG        N/A
WESTERLY       CLOUDY    55  48  77 SE7       30.24R
$$

CTZALL-040000-
CONNECTICUT

CITY           SKY/WX    TMP DP  RH WIND       PRES   REMARKS
BRADLEY INTL   PTSUNNY   69  46  43 SE7       30.17R
HARTFORD       MOSUNNY   62  50  64 S13G24    30.19R
BRIDGEPORT     MOSUNNY  N/A N/A N/A MISG      30.20S
DANBURY        MOSUNNY   62  46  55 SE12      30.19R
GROTON         MOSUNNY   55  48  77 SE10      30.23R
NEW HAVEN      MOSUNNY   59  51  75 SE8       30.21R
CHESTER        NOT AVBL
MERIDEN        MOSUNNY   61  50  67 S9        30.20R
WILLIMANTIC    MOSUNNY   61  50  67 S8        30.21R
OXFORD         MOSUNNY   61  48  63 S9        30.19S
$$

MEZ002-015-021-024-NHZ003-005-008-011-012-014-VTZ005-008-040000-
NORTHERN NEW ENGLAND

CITY           SKY/WX    TMP DP  RH WIND       PRES   REMARKS
PORTLAND ME    MOSUNNY   53  44  71 S8        30.23R
BANGOR ME      CLOUDY    53  41  63 N9        30.25R
CONCORD NH     PTSUNNY   61  49  64 SE10      30.20R
MANCHESTER NH  MOSUNNY   62  48  60 SE10      30.19R
NASHUA NH      SUNNY     63  48  57 SE6       30.21R
PORTSMOUTH NH  MOSUNNY   55  44  66 SE9       30.23R
JAFFREY NH     MOSUNNY   63  49  60 S5        30.19R
KEENE NH       SUNNY     68  43  40 CALM      30.18R
BURLINGTON VT  PTSUNNY   63  43  48 NW7       30.20S
MT. WASHINGTON FOG       37  36  93 W16         N/A  VSB 1/4 WCI  28
$$

NYZ052-076-040000-
EASTERN NEW YORK

CITY           SKY/WX    TMP DP  RH WIND       PRES   REMARKS
ALBANY         MOSUNNY   68  42  38 NE7       30.18S
NEW YORK CITY  PTSUNNY   62  49  62 S13       30.19R
$$

ANZALL-040000-
MARINE OBSERVATIONS

STATION/POSITION TIME  TEMP    WIND        PRES    VSBY  WAVE
                       AIR SEA DIR/SP/G                  HT/PER
                 (UTC) (F)     (DEG/KT/KT) (MB)    (MI)  (FT/S)
BOSTON BUOY      2250   51 51  110/  8/ 10   N/A           3/ 9
BUZZARDS BAY     2300          100/ 13/ 14   N/A
NANTUCKET SOUND  2250   52 54   60/ 14/ 16   N/A           1/ 3
MASS BAY-STELLWA 2204   50 50  130/  6/  6   N/A    1 1/8  2/ 8
ISLE OF SHOALS   2300   49     190/ 12/ 13   N/A
S OF BLOCK IS    2208      57                N/A           3/ 7
$$

......................KEY.........................
  SKY/WX - SKY CONDITION/PRESENT WEATHER
  TMP    - TEMPERATURE IN FAHRENHEIT
  DWPT   - DEWPOINT IN FAHRENHEIT
  RH     - RELATIVE HUMIDITY IN PERCENT
  WIND   - DIRECTION AND SPEED IN MPH
  PRES   - MEAN SEA LEVEL PRESSURE IN INCHES OF HG
  WCI    - WIND CHILL INDEX
  VSB    - VISIBILITY IN MILES
  HX     - HEAT INDEX
  TC     - TEMPERATURE IN CELSIUS
  VRB    - VARIABLE WIND DIRECTION
  N/A    - NOT AVAILABLE


USA.gov is the U.S. government's official web portal to all federal, state and local government web resources and services.